星链-30098 (STARLINK-30098 )

导读

STARLINK-30098是美国SpaceX星链星座的卫星,于2023年4月19日发射升空,归属美国所有。作为星链网络的组成部分,它旨在为全球提供高速互联网接入服务,尤其覆盖偏远与网络基础设施匮乏区域,依托大规模低轨卫星组网,助力实现全球无缝互联的通信覆盖目标。

Basic Information
目录编号:
56292
目录名称:
STARLINK-30098
国际标识:
2023-056G
轨道中心:
EARTH
卫星名称:
星链-30098
卫星全名:
星链-30098 (STARLINK-30098 )
卫星状态:
在轨 (已飞行1234 天)
发射日期:
2023-04-19 UTC
国别 :
美国 (US)
星等 :
--
Orbit Information
数据来源 国际轨道数据
星历时间: 2026-09-04T11:49:03+0800
13小时前
查看轨道信息
半长轴: 6861.195km
偏心率: 0.000128
轨道倾角: 43.005°
近地点辐角 270.501°
升交点赤经 281.090°
平近点角 89.570°
近地点: 482.179km
远地点: 483.937km
周期: 94.267分钟
每日圈数: 15.275772
Detailed Information
固有亮度:
5
最大亮度:
0.3
卫星平台:
Starlink v2.0 mini
覆盖范围:
全球
运营商:
太空探索技术公司
运营商所在国:
美国
制造商(研发单位):
太空探索技术公司
制造商所在国:
美国
使用方式:
暂无
Satellite Introduction
星链(Starlink)计划是由太空探索技术公司(SpaceX)提出的一个巨型低轨卫星互联网星座项目,计划在2019年至2024年间在太空搭建由约1.2万颗卫星组成的“星链”网络,其中1584颗将部署在地球上空550千米处的近地轨道,并从2020年开始工作。该卫星仍在工作。
2D Orbit Map
3D Orbit Map
Orbit Altitude Analysis Chart
Orbit Inclination Analysis Chart
Orbit Comprehensive Analysis Chart
View Comprehensive Chart
Conjunction Data List
Event ID Objects TCA Miss Dist (km) Collision Risk Probability Collision Risk Index (CRI) Action
CDM_260906-215705-629206-680421
2026-09-06T
21:57:04+0000
0.428 km
远距离
1.980052E-4 高风险 0.81
CDM_260906-202205-629206-680421
2026-09-06T
20:22:54+0000
1.293 km
极远距离
7.013688E-6 低风险 0.52
CDM_260906-233105-629206-680421
2026-09-06T
23:31:13+0000
1.932 km
极远距离
2.06756E-6 低风险 0.41
CDM_260906-004705-114205-629222
2026-09-06T
00:47:45+0000
2.028 km
极远距离
1.967486E-6 低风险 0.41
CDM_260906-184805-629206-680421
2026-09-06T
18:48:45+0000
2.821 km
极远距离
9.952015E-7 极低风险 0.35